This is the latest recevied weather packets stored in our database for station/object K5FEP. If no packets are shown the sender has not sent any weather packets the latest 10 day(s).
| Time | Temp. | Humidity | Pressure | Rain* | Wind** | Luminosity | Snow |
|---|---|---|---|---|---|---|---|
| 1788112505 | 31.11° C | 52% | 1021.3 hPa | 0 mm | - | 970 W/m² | - |
| 1788112200 | 31.11° C | 53% | 1021.3 hPa | 0 mm | - | 991 W/m² | - |
| 1788111896 | 30.56° C | 56% | 1021.4 hPa | 0 mm | - | 975 W/m² | - |
| 1788111596 | 30.56° C | 55% | 1021.3 hPa | 0 mm | - | 968 W/m² | - |
| 1788111292 | 30.56° C | 58% | 1021.5 hPa | 0 mm | - | 938 W/m² | - |
| 1788110987 | 31.11° C | 56% | 1021.5 hPa | 0 mm | - | 979 W/m² | - |
| 1788110683 | 30.56° C | 56% | 1021.5 hPa | 0 mm | - | 1034 W/m² | - |
| 1788110378 | 30° C | 57% | 1021.5 hPa | 0 mm | - | 999 W/m² | - |
| 1788110075 | 30.56° C | 54% | 1021.8 hPa | 0 mm | - | 988 W/m² | - |
| 1788109774 | 31.11° C | 55% | 1021.7 hPa | 0 mm | - | 971 W/m² | - |
| 1788109474 | 30.56° C | 56% | 1021.7 hPa | 0 mm | - | 957 W/m² | - |
| 1788109172 | 30° C | 57% | 1022.1 hPa | 0 mm | - | 941 W/m² | - |
| 1788108869 | 30° C | 56% | 1021.8 hPa | 0 mm | - | 961 W/m² | - |
| 1788108565 | 30° C | 58% | 1021.8 hPa | 0 mm | - | 999 W/m² | - |
| 1788108260 | 29.44° C | 60% | 1021.7 hPa | 0 mm | - | 964 W/m² | - |
| 1788107968 | 29.44° C | 59% | 1022 hPa | 0 mm | - | 960 W/m² | - |
| 1788107653 | 30° C | 59% | 1022.1 hPa | 0 mm | - | 978 W/m² | - |
| 1788107352 | 29.44° C | 60% | 1022.2 hPa | 0 mm | - | 771 W/m² | - |
| 1788107049 | 29.44° C | 62% | 1022.4 hPa | 0 mm | - | 976 W/m² | - |
| 1788106748 | 28.89° C | 64% | 1022.5 hPa | 0 mm | - | 963 W/m² | - |
| 1788106448 | 27.22° C | 67% | 1022.3 hPa | 0 mm | - | 1004 W/m² | - |
| 1788106143 | 27.78° C | 66% | 1022.2 hPa | 0 mm | - | 387 W/m² | - |
| 1788105839 | 29.44° C | 62% | 1022.4 hPa | 0 mm | - | 302 W/m² | - |
| 1788105534 | 28.89° C | 64% | 1022.4 hPa | 0 mm | - | 1011 W/m² | - |
| 1788105230 | 29.44° C | 63% | 1022.6 hPa | 0 mm | - | 950 W/m² | - |
* Rain latest hour (hover to see other rain measurements)
** Current wind speed in m/s (hover to see current wind gust speed)